WZZ20QP GCRR-LEZL

Flight info

Callsign WZZ20QP
Flight time 1h 41m
Altitude 34000
Route KORAL7M KORAL UG5 SONSO DCT NIRAL UN871 ADUBI DCT VJF VJF4E
Aircraft A21N/M-SDE2E3FGHIRWXY/LB1

Departure

Time 2026-04-21 22:59
Airport César Manrique-Lanzarote Airport (GCRR)

Arrival

Time 2026-04-22 00:40
Airport Seville Airport (LEZL)
Time Latitude Longitude Altitude Speed Heading
2026-04-21 22:04 28.95057 -13.60727 56 ft 0 kts 296°
2026-04-21 22:48 28.95048 -13.60706 52 ft 5 kts 292°
2026-04-21 22:48 28.95039 -13.60677 55 ft 5 kts 285°
2026-04-21 22:48 28.95034 -13.60647 55 ft 5 kts 267°
2026-04-21 22:48 28.95041 -13.60622 52 ft 5 kts 217°
2026-04-21 22:49 28.95046 -13.60618 55 ft 3 kts 204°
2026-04-21 22:53 28.95045 -13.60619 55 ft 1 kts 204°
2026-04-21 22:53 28.95024 -13.60629 55 ft 6 kts 204°
2026-04-21 22:54 28.94973 -13.60655 54 ft 10 kts 204°
2026-04-21 22:54 28.94900 -13.60651 55 ft 13 kts 122°
2026-04-21 22:54 28.94854 -13.60572 55 ft 12 kts 155°
2026-04-21 22:54 28.94770 -13.60602 55 ft 14 kts 206°
2026-04-21 22:55 28.94680 -13.60653 54 ft 15 kts 206°
2026-04-21 22:55 28.94585 -13.60708 48 ft 15 kts 206°
2026-04-21 22:55 28.94488 -13.60763 41 ft 16 kts 207°
2026-04-21 22:55 28.94389 -13.60820 36 ft 16 kts 206°
2026-04-21 22:56 28.94284 -13.60882 34 ft 17 kts 206°
2026-04-21 22:56 28.94173 -13.60945 33 ft 18 kts 207°
2026-04-21 22:56 28.94058 -13.61013 31 ft 19 kts 207°
2026-04-21 22:56 28.93937 -13.61083 30 ft 20 kts 206°
2026-04-21 22:57 28.93810 -13.61155 29 ft 21 kts 206°
2026-04-21 22:57 28.93715 -13.61211 29 ft 13 kts 207°
2026-04-21 22:57 28.93655 -13.61208 29 ft 14 kts 142°
2026-04-21 22:57 28.93607 -13.61104 29 ft 16 kts 105°
2026-04-21 22:58 28.93652 -13.61037 30 ft 0 kts 26°
2026-04-21 22:58 28.93747 -13.60982 30 ft 49 kts 26°
2026-04-21 22:58 28.94284 -13.60674 36 ft 122 kts 27°
2026-04-21 22:58 28.95227 -13.60133 247 ft 165 kts 26°
2026-04-21 22:59 28.96231 -13.59492 1193 ft 167 kts 29°
2026-04-21 22:59 28.97146 -13.58674 1884 ft 172 kts 41°
2026-04-21 22:59 28.98056 -13.57750 2405 ft 179 kts 33°
2026-04-21 22:59 28.99094 -13.56909 2933 ft 189 kts 32°
2026-04-21 23:00 29.00194 -13.56007 3431 ft 200 kts 33°
2026-04-21 23:00 29.01307 -13.54960 3919 ft 217 kts 43°
2026-04-21 23:00 29.02309 -13.53551 4322 ft 240 kts 49°
2026-04-21 23:00 29.03374 -13.52013 4731 ft 259 kts 49°
2026-04-21 23:01 29.04540 -13.50340 5308 ft 271 kts 49°
2026-04-21 23:01 29.05727 -13.48636 6032 ft 278 kts 50°
2026-04-21 23:01 29.06942 -13.46895 6781 ft 282 kts 50°
2026-04-21 23:01 29.08176 -13.45127 7525 ft 287 kts 50°
2026-04-21 23:02 29.09436 -13.43330 8275 ft 291 kts 49°
2026-04-21 23:02 29.10992 -13.41866 8980 ft 293 kts 26°
2026-04-21 23:02 29.12852 -13.40878 9701 ft 296 kts 21°
2026-04-21 23:02 29.14768 -13.39947 10315 ft 305 kts 21°
2026-04-21 23:03 29.16775 -13.38959 10642 ft 323 kts 22°
2026-04-21 23:03 29.18862 -13.37913 10910 ft 342 kts 22°
2026-04-21 23:03 29.21091 -13.36779 11241 ft 357 kts 22°
2026-04-21 23:03 29.23382 -13.35605 11754 ft 364 kts 22°
2026-04-21 23:04 29.25691 -13.34400 11990 ft 366 kts 25°
2026-04-21 23:04 29.27778 -13.32732 12032 ft 369 kts 44°
2026-04-21 23:04 29.29370 -13.30431 12052 ft 369 kts 55°
2026-04-21 23:04 29.30803 -13.27984 12030 ft 369 kts 56°
2026-04-21 23:05 29.32232 -13.25546 12023 ft 369 kts 55°
2026-04-21 23:05 29.33681 -13.23115 12020 ft 369 kts 55°
2026-04-21 23:05 29.35143 -13.20695 12019 ft 369 kts 54°
2026-04-21 23:05 29.36611 -13.18279 12016 ft 369 kts 54°
2026-04-21 23:06 29.38067 -13.15857 12012 ft 369 kts 57°
2026-04-21 23:06 29.39061 -13.13157 12069 ft 369 kts 78°
2026-04-21 23:06 29.39235 -13.10225 12635 ft 372 kts 96°
2026-04-21 23:06 29.38831 -13.07289 13330 ft 374 kts 102°
2026-04-21 23:07 29.38325 -13.04347 13997 ft 378 kts 102°
2026-04-21 23:07 29.38091 -13.01333 14609 ft 383 kts 87°
2026-04-21 23:07 29.38651 -12.98355 15235 ft 385 kts 68°
2026-04-21 23:07 29.39969 -12.95684 15889 ft 386 kts 54°
2026-04-21 23:08 29.41539 -12.93175 16542 ft 388 kts 52°
2026-04-21 23:08 29.43133 -12.90662 17188 ft 391 kts 53°
2026-04-21 23:08 29.44720 -12.88115 17858 ft 393 kts 53°
2026-04-21 23:08 29.46291 -12.85549 18483 ft 395 kts 53°
2026-04-21 23:09 29.47873 -12.82962 19027 ft 398 kts 53°
2026-04-21 23:09 29.49447 -12.80386 19554 ft 400 kts 53°
2026-04-21 23:09 29.51062 -12.77717 20084 ft 403 kts 53°
2026-04-21 23:09 29.52649 -12.75099 20583 ft 407 kts 53°
2026-04-21 23:10 29.54272 -12.72422 21080 ft 410 kts 53°
2026-04-21 23:10 29.55888 -12.69718 21582 ft 413 kts 53°
2026-04-21 23:10 29.57524 -12.66994 22080 ft 416 kts 53°
2026-04-21 23:10 29.59167 -12.64250 22574 ft 418 kts 53°
2026-04-21 23:11 29.60964 -12.61623 23047 ft 418 kts 41°
2026-04-21 23:11 29.63302 -12.59676 23501 ft 415 kts 24°
2026-04-21 23:11 29.66013 -12.58605 23888 ft 412 kts
2026-04-21 23:11 29.68859 -12.58399 24271 ft 410 kts 354°
2026-04-21 23:12 29.71646 -12.59050 24661 ft 410 kts 341°
2026-04-21 23:12 29.74444 -12.59700 25036 ft 414 kts 355°
2026-04-21 23:12 29.77326 -12.59364 25408 ft 421 kts 13°
2026-04-21 23:12 29.80027 -12.58033 25783 ft 428 kts 29°
2026-04-21 23:13 29.82314 -12.55805 26113 ft 437 kts 46°
2026-04-21 23:13 29.83976 -12.52855 26453 ft 445 kts 63°
2026-04-21 23:13 29.85160 -12.49543 26819 ft 448 kts 65°
2026-04-21 23:13 29.86357 -12.46227 27179 ft 450 kts 64°
2026-04-21 23:14 29.87644 -12.42932 27535 ft 451 kts 62°
2026-04-21 23:14 29.88978 -12.39654 27903 ft 453 kts 62°
2026-04-21 23:14 29.90342 -12.36373 28280 ft 454 kts 61°
2026-04-21 23:14 29.91712 -12.33089 28637 ft 456 kts 61°
2026-04-21 23:15 29.93092 -12.29789 28973 ft 458 kts 61°
2026-04-21 23:15 29.94479 -12.26476 29305 ft 460 kts 61°
2026-04-21 23:15 29.95864 -12.23149 29622 ft 462 kts 61°
2026-04-21 23:15 29.97256 -12.19810 30005 ft 461 kts 61°
2026-04-21 23:16 29.98640 -12.16479 30349 ft 461 kts 61°
2026-04-21 23:16 30.00022 -12.13153 30689 ft 460 kts 60°
2026-04-21 23:16 30.01656 -12.10007 30991 ft 455 kts 50°
2026-04-21 23:16 30.03746 -12.07311 31275 ft 450 kts 41°
2026-04-21 23:17 30.05959 -12.04824 31563 ft 449 kts 40°
2026-04-21 23:17 30.08214 -12.02333 31899 ft 448 kts 40°
2026-04-21 23:17 30.10457 -11.99842 32247 ft 446 kts 40°
2026-04-21 23:17 30.12692 -11.97365 32559 ft 445 kts 40°
2026-04-21 23:18 30.14920 -11.94882 32844 ft 444 kts 40°
2026-04-21 23:18 30.17140 -11.92398 33113 ft 444 kts 40°
2026-04-21 23:18 30.19356 -11.89916 33381 ft 443 kts 40°
2026-04-21 23:18 30.21567 -11.87435 33635 ft 443 kts 40°
2026-04-21 23:19 30.23775 -11.84953 33891 ft 443 kts 40°
2026-04-21 23:19 30.25986 -11.82468 34035 ft 443 kts 40°
2026-04-21 23:19 30.30401 -11.77504 34031 ft 442 kts 40°
2026-04-21 23:20 30.34806 -11.72543 34004 ft 442 kts 40°
2026-04-21 23:20 30.39215 -11.67568 34004 ft 442 kts 40°
2026-04-21 23:21 30.43620 -11.62587 34005 ft 443 kts 40°
2026-04-21 23:21 30.48047 -11.57586 33999 ft 445 kts 40°
2026-04-21 23:22 30.52475 -11.52565 33997 ft 445 kts 40°
2026-04-21 23:22 30.56873 -11.47578 33997 ft 445 kts 40°
2026-04-21 23:23 30.61299 -11.42549 34000 ft 445 kts 40°
2026-04-21 23:23 30.65720 -11.37523 33999 ft 444 kts 40°
2026-04-21 23:24 30.70129 -11.32496 33997 ft 445 kts 40°
2026-04-21 23:24 30.74517 -11.27471 34000 ft 441 kts 40°
2026-04-21 23:25 30.78905 -11.22452 33999 ft 444 kts 40°
2026-04-21 23:25 30.83303 -11.17412 33997 ft 444 kts 40°
2026-04-21 23:26 30.87703 -11.12375 33995 ft 444 kts 40°
2026-04-21 23:26 30.92109 -11.07332 33994 ft 444 kts 40°
2026-04-21 23:27 30.96505 -11.02274 33997 ft 444 kts 40°
2026-04-21 23:27 31.00906 -10.97215 33995 ft 444 kts 40°
2026-04-21 23:28 31.05296 -10.92157 33999 ft 441 kts 40°
2026-04-21 23:28 31.09649 -10.87144 33998 ft 444 kts 40°
2026-04-21 23:29 31.14075 -10.82045 33993 ft 444 kts 40°
2026-04-21 23:29 31.18434 -10.77000 33990 ft 444 kts 40°
2026-04-21 23:30 31.22826 -10.71929 33993 ft 444 kts 40°
2026-04-21 23:30 31.27225 -10.66845 33994 ft 444 kts 40°
2026-04-21 23:31 31.31611 -10.61749 33993 ft 445 kts 41°
2026-04-21 23:31 31.36005 -10.56654 34005 ft 444 kts 40°
2026-04-21 23:32 31.40383 -10.51564 33997 ft 444 kts 41°
2026-04-21 23:32 31.44771 -10.46452 33991 ft 444 kts 41°
2026-04-21 23:33 31.49151 -10.41342 33992 ft 445 kts 41°
2026-04-21 23:33 31.53530 -10.36217 33990 ft 445 kts 41°
2026-04-21 23:34 31.57905 -10.31091 33993 ft 445 kts 41°
2026-04-21 23:34 31.62282 -10.25961 33990 ft 445 kts 41°
2026-04-21 23:35 31.66658 -10.20826 33997 ft 445 kts 41°
2026-04-21 23:35 31.71031 -10.15686 33991 ft 444 kts 41°
2026-04-21 23:36 31.75390 -10.10558 33993 ft 444 kts 41°
2026-04-21 23:36 31.79749 -10.05420 33992 ft 444 kts 41°
2026-04-21 23:37 31.84099 -10.00270 33989 ft 444 kts 41°
2026-04-21 23:37 31.88461 -9.95119 33989 ft 444 kts 41°
2026-04-21 23:38 31.92786 -9.90005 33989 ft 444 kts 41°
2026-04-21 23:38 31.97139 -9.84839 33995 ft 445 kts 41°
2026-04-21 23:39 32.01489 -9.79654 33990 ft 444 kts 41°
2026-04-21 23:39 32.05846 -9.74488 33987 ft 444 kts 41°
2026-04-21 23:40 32.10197 -9.69313 33986 ft 444 kts 41°
2026-04-21 23:40 32.14541 -9.64137 33986 ft 444 kts 41°
2026-04-21 23:41 32.18890 -9.58948 33989 ft 444 kts 41°
2026-04-21 23:41 32.23232 -9.53753 33989 ft 444 kts 41°
2026-04-21 23:42 32.27576 -9.48549 33993 ft 446 kts 41°
2026-04-21 23:42 32.31928 -9.43331 33994 ft 444 kts 41°
2026-04-21 23:43 32.36266 -9.38125 33990 ft 445 kts 41°
2026-04-21 23:43 32.40602 -9.32902 33987 ft 445 kts 41°
2026-04-21 23:44 32.44930 -9.27680 33987 ft 444 kts 41°
2026-04-21 23:44 32.49266 -9.22461 33987 ft 444 kts 41°
2026-04-21 23:45 32.55760 -9.14610 34002 ft 445 kts 41°
2026-04-21 23:46 32.60109 -9.09350 33991 ft 448 kts 41°
2026-04-21 23:46 32.63720 -9.04974 33991 ft 446 kts 41°
2026-04-21 23:47 32.68048 -8.99713 33992 ft 446 kts 41°
2026-04-21 23:47 32.73085 -8.93590 33992 ft 446 kts 41°
2026-04-21 23:48 32.77411 -8.88314 33987 ft 446 kts 41°
2026-04-21 23:48 32.81040 -8.83893 33993 ft 446 kts 41°
2026-04-21 23:49 32.85334 -8.78652 33994 ft 446 kts 41°
2026-04-21 23:49 32.89669 -8.73354 33987 ft 447 kts 41°
2026-04-21 23:50 32.93997 -8.68051 33989 ft 446 kts 41°
2026-04-21 23:50 32.98310 -8.62740 33986 ft 446 kts 42°
2026-04-21 23:51 33.02617 -8.57419 33987 ft 446 kts 42°
2026-04-21 23:51 33.06929 -8.52106 33990 ft 446 kts 41°
2026-04-21 23:52 33.11238 -8.46796 33989 ft 446 kts 42°
2026-04-21 23:52 33.15554 -8.41467 33990 ft 446 kts 42°
2026-04-21 23:53 33.19990 -8.36318 33983 ft 441 kts 32°
2026-04-21 23:53 33.25106 -8.32347 33990 ft 436 kts 28°
2026-04-21 23:54 33.30257 -8.28507 33987 ft 436 kts 28°
2026-04-21 23:54 33.35400 -8.24651 33986 ft 437 kts 28°
2026-04-21 23:55 33.40548 -8.20797 33981 ft 436 kts 28°
2026-04-21 23:55 33.45669 -8.16935 33988 ft 439 kts 28°
2026-04-21 23:56 33.50825 -8.13030 33988 ft 439 kts 28°
2026-04-21 23:56 33.55984 -8.09123 33983 ft 438 kts 28°
2026-04-21 23:57 33.61137 -8.05213 33988 ft 438 kts 28°
2026-04-21 23:57 33.66283 -8.01278 33985 ft 439 kts 28°
2026-04-21 23:58 33.71436 -7.97347 33988 ft 439 kts 28°
2026-04-21 23:58 33.76607 -7.93405 33981 ft 440 kts 28°
2026-04-21 23:59 33.81776 -7.89460 33981 ft 440 kts 28°
2026-04-21 23:59 33.86943 -7.85507 33978 ft 440 kts 28°
2026-04-22 00:00 33.92113 -7.81548 33977 ft 440 kts 28°
2026-04-22 00:00 33.97275 -7.77590 33993 ft 441 kts 28°
2026-04-22 00:01 34.02454 -7.73610 33984 ft 442 kts 28°
2026-04-22 00:01 34.07636 -7.69625 33980 ft 442 kts 28°
2026-04-22 00:02 34.12817 -7.65637 33980 ft 442 kts 28°
2026-04-22 00:02 34.17999 -7.61643 33978 ft 443 kts 28°
2026-04-22 00:03 34.23178 -7.57644 33981 ft 441 kts 28°
2026-04-22 00:03 34.28353 -7.53651 33975 ft 442 kts 28°
2026-04-22 00:04 34.33542 -7.49636 33976 ft 443 kts 28°
2026-04-22 00:04 34.38723 -7.45620 33982 ft 443 kts 28°
2026-04-22 00:05 34.43914 -7.41587 33973 ft 443 kts 28°
2026-04-22 00:05 34.49057 -7.37579 33975 ft 443 kts 28°
2026-04-22 00:06 34.54240 -7.33535 33980 ft 444 kts 28°
2026-04-22 00:06 34.59443 -7.29483 33981 ft 444 kts 28°
2026-04-22 00:07 34.64638 -7.25415 33983 ft 444 kts 28°
2026-04-22 00:07 34.69839 -7.21346 33984 ft 444 kts 28°
2026-04-22 00:08 34.75014 -7.17287 33971 ft 443 kts 28°
2026-04-22 00:08 34.80194 -7.13223 33984 ft 444 kts 28°
2026-04-22 00:09 34.85397 -7.09127 33977 ft 445 kts 28°
2026-04-22 00:09 34.90598 -7.05030 33974 ft 445 kts 28°
2026-04-22 00:10 34.95802 -7.00925 33974 ft 445 kts 28°
2026-04-22 00:10 35.00999 -6.96814 33969 ft 445 kts 28°
2026-04-22 00:11 35.06197 -6.92703 33979 ft 446 kts 28°
2026-04-22 00:11 35.11410 -6.88572 33970 ft 447 kts 29°
2026-04-22 00:12 35.16624 -6.84433 33970 ft 447 kts 29°
2026-04-22 00:12 35.21816 -6.80301 33965 ft 445 kts 29°
2026-04-22 00:13 35.27007 -6.76167 33965 ft 445 kts 29°
2026-04-22 00:13 35.32193 -6.72034 33977 ft 445 kts 29°
2026-04-22 00:14 35.37387 -6.67967 33966 ft 446 kts 28°
2026-04-22 00:14 35.42678 -6.63895 33965 ft 446 kts 28°
2026-04-22 00:15 35.47896 -6.59873 33965 ft 446 kts 28°
2026-04-22 00:15 35.53188 -6.55787 33964 ft 446 kts 28°
2026-04-22 00:16 35.58408 -6.51757 33971 ft 447 kts 28°
2026-04-22 00:16 35.63678 -6.47677 33962 ft 448 kts 28°
2026-04-22 00:17 35.68944 -6.43597 33730 ft 445 kts 29°
2026-04-22 00:17 35.71573 -6.41557 33409 ft 448 kts 29°
2026-04-22 00:17 35.74210 -6.39504 33127 ft 449 kts 29°
2026-04-22 00:17 35.76855 -6.37447 32856 ft 450 kts 29°
2026-04-22 00:18 35.79498 -6.35389 32453 ft 447 kts 29°
2026-04-22 00:18 35.82112 -6.33349 31905 ft 443 kts 29°
2026-04-22 00:18 35.84674 -6.31256 31343 ft 441 kts 31°
2026-04-22 00:18 35.87192 -6.29114 30774 ft 439 kts 32°
2026-04-22 00:19 35.89687 -6.26971 30251 ft 436 kts 32°
2026-04-22 00:19 35.92164 -6.24835 29663 ft 433 kts 32°
2026-04-22 00:19 35.94629 -6.22718 29044 ft 430 kts 32°
2026-04-22 00:19 35.97082 -6.20613 28465 ft 427 kts 32°
2026-04-22 00:20 35.99511 -6.18528 27921 ft 424 kts 32°
2026-04-22 00:20 36.01923 -6.16465 27399 ft 420 kts 32°
2026-04-22 00:20 36.04324 -6.14423 26841 ft 417 kts 32°
2026-04-22 00:20 36.06708 -6.12391 26283 ft 415 kts 32°
2026-04-22 00:21 36.09077 -6.10362 25757 ft 413 kts 32°
2026-04-22 00:21 36.11430 -6.08338 25256 ft 411 kts 32°
2026-04-22 00:21 36.13774 -6.06323 24746 ft 409 kts 32°
2026-04-22 00:21 36.16106 -6.04318 24240 ft 408 kts 32°
2026-04-22 00:22 36.18426 -6.02316 23732 ft 406 kts 32°
2026-04-22 00:22 36.20743 -6.00316 23166 ft 405 kts 32°
2026-04-22 00:22 36.23059 -5.98355 22615 ft 402 kts 29°
2026-04-22 00:22 36.25562 -5.96902 22091 ft 395 kts 16°
2026-04-22 00:23 36.28172 -5.95885 21572 ft 392 kts 13°
2026-04-22 00:23 36.30782 -5.94933 21055 ft 390 kts 13°
2026-04-22 00:23 36.33380 -5.93983 20568 ft 388 kts 14°
2026-04-22 00:23 36.35950 -5.93028 20114 ft 385 kts 14°
2026-04-22 00:24 36.38477 -5.92079 19666 ft 383 kts 14°
2026-04-22 00:24 36.41016 -5.91120 19210 ft 381 kts 14°
2026-04-22 00:24 36.43550 -5.90161 18782 ft 380 kts 14°
2026-04-22 00:24 36.46077 -5.89206 18361 ft 379 kts 14°
2026-04-22 00:25 36.48597 -5.88251 17891 ft 378 kts 14°
2026-04-22 00:25 36.51110 -5.87300 17426 ft 377 kts 14°
2026-04-22 00:25 36.53624 -5.86349 16983 ft 377 kts 14°
2026-04-22 00:25 36.56127 -5.85397 16550 ft 377 kts 14°
2026-04-22 00:26 36.58636 -5.84443 16122 ft 376 kts 14°
2026-04-22 00:26 36.61138 -5.83484 15705 ft 377 kts 14°
2026-04-22 00:26 36.63650 -5.82519 15293 ft 377 kts 14°
2026-04-22 00:26 36.66162 -5.81560 14889 ft 379 kts 14°
2026-04-22 00:27 36.68688 -5.80597 14445 ft 381 kts 14°
2026-04-22 00:27 36.71229 -5.79626 13994 ft 383 kts 14°
2026-04-22 00:27 36.73789 -5.78652 13514 ft 387 kts 14°
2026-04-22 00:27 36.76370 -5.77666 13046 ft 388 kts 14°
2026-04-22 00:28 36.78953 -5.76680 12599 ft 388 kts 14°
2026-04-22 00:28 36.81522 -5.75696 12148 ft 383 kts 14°
2026-04-22 00:28 36.84050 -5.74723 11673 ft 378 kts 14°
2026-04-22 00:28 36.86550 -5.73765 11216 ft 373 kts 14°
2026-04-22 00:29 36.89020 -5.72823 10800 ft 369 kts 14°
2026-04-22 00:29 36.91442 -5.71897 10518 ft 358 kts 14°
2026-04-22 00:29 36.93785 -5.71000 10301 ft 346 kts 14°
2026-04-22 00:29 36.96046 -5.70131 10126 ft 334 kts 14°
2026-04-22 00:30 36.98256 -5.69282 9742 ft 331 kts 14°
2026-04-22 00:30 37.00452 -5.68442 9284 ft 330 kts 14°
2026-04-22 00:30 37.02638 -5.67606 8855 ft 327 kts 14°
2026-04-22 00:30 37.04802 -5.66781 8428 ft 324 kts 15°
2026-04-22 00:31 37.06945 -5.65962 8017 ft 321 kts 15°
2026-04-22 00:31 37.09069 -5.65143 7630 ft 318 kts 15°
2026-04-22 00:31 37.11178 -5.64331 7239 ft 316 kts 15°
2026-04-22 00:31 37.13270 -5.63522 6836 ft 314 kts 16°
2026-04-22 00:32 37.15348 -5.62718 6434 ft 311 kts 16°
2026-04-22 00:32 37.17417 -5.61971 6049 ft 307 kts 10°
2026-04-22 00:32 37.19519 -5.61682 5653 ft 302 kts
2026-04-22 00:32 37.21607 -5.61562 5287 ft 299 kts
2026-04-22 00:33 37.23674 -5.61448 4929 ft 296 kts
2026-04-22 00:33 37.25719 -5.61322 4546 ft 293 kts
2026-04-22 00:33 37.27746 -5.61190 4158 ft 290 kts
2026-04-22 00:33 37.29749 -5.61059 3840 ft 288 kts
2026-04-22 00:34 37.31072 -5.60970 3610 ft 287 kts
2026-04-22 00:34 37.33063 -5.60838 3284 ft 284 kts
2026-04-22 00:34 37.35006 -5.60706 3112 ft 275 kts
2026-04-22 00:34 37.36871 -5.60574 2966 ft 261 kts
2026-04-22 00:35 37.38633 -5.60446 2962 ft 249 kts
2026-04-22 00:35 37.40288 -5.60543 2941 ft 227 kts 338°
2026-04-22 00:35 37.41505 -5.61587 2956 ft 209 kts 299°
2026-04-22 00:35 37.41990 -5.63247 2990 ft 201 kts 272°
2026-04-22 00:36 37.42038 -5.64991 3005 ft 199 kts 264°
2026-04-22 00:36 37.41971 -5.66730 3006 ft 198 kts 263°
2026-04-22 00:36 37.41913 -5.68456 2967 ft 197 kts 263°
2026-04-22 00:36 37.41873 -5.70180 2817 ft 196 kts 265°
2026-04-22 00:37 37.41860 -5.71889 2577 ft 196 kts 267°
2026-04-22 00:37 37.41855 -5.73528 2364 ft 180 kts 266°
2026-04-22 00:37 37.41850 -5.75051 2114 ft 168 kts 267°
2026-04-22 00:37 37.41844 -5.76471 1895 ft 157 kts 266°
2026-04-22 00:38 37.41840 -5.77792 1688 ft 141 kts 266°
2026-04-22 00:38 37.41836 -5.78971 1478 ft 132 kts 266°
2026-04-22 00:38 37.41831 -5.80126 1292 ft 132 kts 267°
2026-04-22 00:38 37.41827 -5.81281 1113 ft 133 kts 266°
2026-04-22 00:39 37.41822 -5.82444 945 ft 133 kts 267°
2026-04-22 00:39 37.41818 -5.83606 773 ft 132 kts 268°
2026-04-22 00:39 37.41821 -5.84756 625 ft 131 kts 267°
2026-04-22 00:39 37.41810 -5.85912 415 ft 133 kts 267°
2026-04-22 00:40 37.41799 -5.87075 236 ft 133 kts 269°
2026-04-22 00:40 37.41798 -5.88223 117 ft 126 kts 268°
2026-04-22 00:40 37.41791 -5.89153 106 ft 78 kts 270°
2026-04-22 00:40 37.41793 -5.89589 104 ft 27 kts 270°
2026-04-22 00:41 37.41812 -5.89772 102 ft 17 kts 314°
2026-04-22 00:41 37.41924 -5.89838 101 ft 15 kts 339°
2026-04-22 00:41 37.41958 -5.89857 101 ft 6 kts 335°
2026-04-22 00:41 37.42002 -5.89883 101 ft 8 kts 335°
2026-04-22 00:42 37.42056 -5.89913 100 ft 9 kts 336°
2026-04-22 00:42 37.42123 -5.89925 99 ft 11 kts
2026-04-22 00:42 37.42173 -5.89969 101 ft 5 kts 316°
2026-04-22 00:42 37.42183 -5.89980 99 ft 0 kts 316°